TimeEDT,TemperatureF,Dew PointF,Humidity,Sea Level PressureIn,VisibilityMPH,Wind Direction,Wind SpeedMPH,Gust SpeedMPH,PrecipitationIn,Events,Conditions,WindDirDegrees,DateUTC
12:53 AM,70.0,66.9,90,30.00,7.0,Calm,Calm,-,0.00,,Mostly Cloudy,0,2013-08-27 04:53:00
1:53 AM,70.0,66.9,90,29.99,8.0,SW,4.6,-,0.00,,Mostly Cloudy,230,2013-08-27 05:53:00
2:45 AM,69.8,66.2,88,30.02,6.0,West,4.6,-,N/A,,Scattered Clouds,260,2013-08-27 06:45:00
2:53 AM,69.1,66.9,93,29.99,6.0,West,4.6,-,N/A,,Scattered Clouds,260,2013-08-27 06:53:00
3:53 AM,69.1,66.9,93,29.98,5.0,West,4.6,-,N/A,,Clear,260,2013-08-27 07:53:00
4:53 AM,69.1,66.9,93,29.98,4.0,West,5.8,-,N/A,,Scattered Clouds,260,2013-08-27 08:53:00
5:03 AM,69.8,68.0,94,30.01,4.0,West,4.6,-,N/A,,Mostly Cloudy,270,2013-08-27 09:03:00
5:26 AM,69.8,68.0,94,30.02,4.0,West,5.8,-,N/A,,Partly Cloudy,260,2013-08-27 09:26:00
5:53 AM,69.1,68.0,96,29.99,3.0,WSW,5.8,-,N/A,,Scattered Clouds,250,2013-08-27 09:53:00
6:22 AM,69.8,68.0,94,30.01,2.5,SW,3.5,-,N/A,,Partly Cloudy,230,2013-08-27 10:22:00
6:42 AM,69.8,66.2,88,30.01,1.2,Calm,Calm,-,N/A,,Clear,0,2013-08-27 10:42:00
6:53 AM,68.0,66.9,96,29.98,0.8,SSW,3.5,-,N/A,,Clear,200,2013-08-27 10:53:00
7:02 AM,68.0,66.2,94,30.01,0.5,SSW,4.6,-,N/A,Fog,Fog,200,2013-08-27 11:02:00
7:10 AM,68.0,66.2,94,30.01,0.2,SSW,4.6,-,N/A,Fog,Fog,200,2013-08-27 11:10:00
7:19 AM,68.0,66.2,94,30.01,0.2,Calm,Calm,-,N/A,Fog,Fog,0,2013-08-27 11:19:00
7:40 AM,68.0,66.2,94,30.02,0.2,SSW,4.6,-,N/A,Fog,Fog,200,2013-08-27 11:40:00
7:53 AM,68.0,66.9,96,30.00,0.2,SSW,3.5,-,N/A,Fog,Fog,210,2013-08-27 11:53:00
7:59 AM,69.8,68.0,94,30.02,0.5,SSW,3.5,-,N/A,Fog,Fog,200,2013-08-27 11:59:00
8:10 AM,69.8,68.0,94,30.02,1.5,SSW,3.5,-,N/A,,Scattered Clouds,210,2013-08-27 12:10:00
8:25 AM,69.8,69.8,100,30.02,2.0,SSW,4.6,-,N/A,,Partly Cloudy,200,2013-08-27 12:25:00
8:51 AM,69.8,69.8,100,30.02,3.0,Variable,5.8,-,N/A,,Clear,0,2013-08-27 12:51:00
8:53 AM,70.0,69.1,97,30.00,3.0,SSW,4.6,-,N/A,,Clear,200,2013-08-27 12:53:00
9:53 AM,75.0,70.0,84,29.99,6.0,WSW,3.5,-,N/A,,Haze,240,2013-08-27 13:53:00
10:24 AM,75.2,69.8,83,30.01,6.0,WSW,3.5,-,N/A,,Haze,250,2013-08-27 14:24:00
10:53 AM,77.0,71.1,82,29.99,6.0,West,8.1,-,N/A,,Haze,260,2013-08-27 14:53:00
11:53 AM,75.0,70.0,84,29.99,6.0,WSW,8.1,-,N/A,,Haze,250,2013-08-27 15:53:00
12:53 PM,73.0,70.0,90,29.98,9.0,WSW,13.8,-,N/A,,Overcast,250,2013-08-27 16:53:00
1:53 PM,75.9,71.1,85,29.95,10.0,Calm,Calm,-,N/A,,Scattered Clouds,0,2013-08-27 17:53:00
2:53 PM,78.1,68.0,71,29.94,10.0,West,5.8,-,N/A,,Clear,280,2013-08-27 18:53:00
3:53 PM,79.0,66.9,66,29.94,10.0,West,9.2,-,N/A,,Clear,280,2013-08-27 19:53:00
4:53 PM,78.1,68.0,71,29.93,10.0,West,6.9,-,N/A,,Clear,260,2013-08-27 20:53:00
5:53 PM,77.0,68.0,74,29.94,10.0,West,5.8,-,N/A,,Partly Cloudy,270,2013-08-27 21:53:00
6:53 PM,75.9,69.1,79,29.94,10.0,West,4.6,-,N/A,,Partly Cloudy,280,2013-08-27 22:53:00
7:53 PM,73.0,66.9,81,29.95,10.0,Calm,Calm,-,N/A,,Clear,0,2013-08-27 23:53:00
8:53 PM,72.0,66.9,84,29.95,10.0,Calm,Calm,-,N/A,,Clear,0,2013-08-28 00:53:00
9:53 PM,73.0,68.0,84,29.95,10.0,Calm,Calm,-,N/A,,Scattered Clouds,0,2013-08-28 01:53:00
10:53 PM,73.0,69.1,87,29.94,10.0,Calm,Calm,-,0.00,,Mostly Cloudy,0,2013-08-28 02:53:00
11:36 PM,71.6,69.8,94,29.98,10.0,SSW,6.9,-,0.00,Rain,Light Rain,210,2013-08-28 03:36:00
11:53 PM,71.1,69.1,93,29.95,4.0,WSW,4.6,-,0.02,Rain,Rain,240,2013-08-28 03:53:00